Time,TemperatureF,DewpointF,PressureIn,WindDirection,WindDirectionDegrees,WindSpeedMPH,WindSpeedGustMPH,Humidity,HourlyPrecipIn,Conditions,Clouds,dailyrainin,SolarRadiationWatts/m^2,SoftwareType,DateUTC
2013-06-18 00:00:00,71.8,59.4,29.94,NNE,22,0.0,2.0,65,0.00,,,0.00,0,WeatherCatV1.15B25,2013-06-18 05:00:00,
2013-06-18 00:01:00,71.7,59.3,29.94,NNE,17,0.0,0.0,65,0.00,,,0.00,0,LWC V2.10 B1813,2013-06-18 05:01:00,
2013-06-18 00:05:00,71.8,59.4,29.94,NNE,22,0.0,2.0,65,0.00,,,0.00,0,WeatherCatV1.15B25,2013-06-18 05:05:00,
2013-06-18 00:06:00,71.6,59.2,29.93,NNE,17,0.0,1.0,65,0.00,,,0.00,0,LWC V2.10 B1813,2013-06-18 05:06:00,
2013-06-18 00:10:00,71.6,59.2,29.94,NNE,22,0.0,0.0,65,0.00,,,0.00,0,WeatherCatV1.15B25,2013-06-18 05:10:00,
2013-06-18 00:11:00,71.4,59.0,29.93,NNE,17,0.0,0.0,65,0.00,,,0.00,0,LWC V2.10 B1813,2013-06-18 05:11:00,
2013-06-18 00:15:00,71.6,59.2,29.94,NNE,22,0.0,0.0,65,0.00,,,0.00,0,WeatherCatV1.15B25,2013-06-18 05:15:00,
2013-06-18 00:16:00,71.3,58.9,29.93,NNE,17,0.0,0.0,65,0.00,,,0.00,0,LWC V2.10 B1813,2013-06-18 05:16:00,
2013-06-18 00:20:00,71.6,59.2,29.94,NNE,22,0.0,0.0,65,0.00,,,0.00,0,WeatherCatV1.15B25,2013-06-18 05:20:00,
2013-06-18 00:21:00,71.1,59.2,29.93,NNE,17,0.0,0.0,66,0.00,,,0.00,0,LWC V2.10 B1813,2013-06-18 05:21:00,
2013-06-18 00:25:00,71.5,59.1,29.93,NNE,22,0.0,1.0,65,0.00,,,0.00,0,WeatherCatV1.15B25,2013-06-18 05:25:00,
2013-06-18 00:26:00,71.0,59.1,29.94,NNE,17,0.0,0.0,66,0.00,,,0.00,0,LWC V2.10 B1813,2013-06-18 05:26:00,
2013-06-18 00:30:00,71.5,59.1,29.93,NNE,22,0.0,1.0,65,0.00,,,0.00,0,WeatherCatV1.15B25,2013-06-18 05:30:00,
2013-06-18 00:31:00,70.7,59.2,29.94,NNE,17,1.0,1.0,67,0.00,,,0.00,0,LWC V2.10 B1813,2013-06-18 05:31:00,
2013-06-18 00:35:00,71.5,59.1,29.93,NNE,22,0.0,1.0,65,0.00,,,0.00,0,WeatherCatV1.15B25,2013-06-18 05:35:00,
2013-06-18 00:36:00,70.5,58.6,29.93,NNE,17,0.0,0.0,66,0.00,,,0.00,0,LWC V2.10 B1813,2013-06-18 05:36:00,
2013-06-18 00:40:00,71.1,59.6,29.94,NNE,22,0.0,0.0,67,0.00,,,0.00,0,WeatherCatV1.15B25,2013-06-18 05:40:00,
2013-06-18 00:41:00,70.4,58.9,29.93,NNE,17,0.0,0.0,67,0.00,,,0.00,0,LWC V2.10 B1813,2013-06-18 05:41:00,
2013-06-18 00:45:00,71.1,59.6,29.94,NNE,22,0.0,0.0,67,0.00,,,0.00,0,WeatherCatV1.15B25,2013-06-18 05:45:00,
2013-06-18 00:46:00,70.3,58.8,29.94,NNE,17,0.0,0.0,67,0.00,,,0.00,0,LWC V2.10 B1813,2013-06-18 05:46:00,
2013-06-18 00:50:00,71.1,59.6,29.94,NNE,22,0.0,0.0,67,0.00,,,0.00,0,WeatherCatV1.15B25,2013-06-18 05:50:00,
2013-06-18 00:51:00,70.1,58.6,29.94,NNE,17,0.0,0.0,67,0.00,,,0.00,0,LWC V2.10 B1813,2013-06-18 05:51:00,
2013-06-18 00:55:00,70.5,59.0,29.94,NNE,22,0.0,1.0,67,0.00,,,0.00,0,WeatherCatV1.15B25,2013-06-18 05:55:00,
2013-06-18 00:56:00,69.9,58.4,29.94,NNE,18,0.0,3.0,67,0.00,,,0.00,0,LWC V2.10 B1813,2013-06-18 05:56:00,
2013-06-18 01:00:00,69.9,58.4,29.94,NNE,18,0.0,0.0,67,0.00,,,0.00,0,LWC V2.10 B1813,2013-06-18 06:00:00,
2013-06-18 01:05:00,69.9,58.4,29.94,NNE,18,0.0,0.0,67,0.00,,,0.00,0,LWC V2.10 B1813,2013-06-18 06:05:00,
2013-06-18 01:10:00,69.8,57.9,29.94,NNE,17,0.0,2.0,66,0.00,,,0.00,0,LWC V2.10 B1813,2013-06-18 06:10:00,
2013-06-18 01:15:00,69.7,57.8,29.94,NNE,18,0.0,0.0,66,0.00,,,0.00,0,LWC V2.10 B1813,2013-06-18 06:15:00,
2013-06-18 01:20:00,69.5,57.6,29.94,NNE,18,0.0,0.0,66,0.00,,,0.00,0,LWC V2.10 B1813,2013-06-18 06:20:00,
2013-06-18 01:25:00,69.4,57.5,29.94,NNE,18,0.0,0.0,66,0.00,,,0.00,0,LWC V2.10 B1813,2013-06-18 06:25:00,
2013-06-18 01:30:00,69.2,57.8,29.94,NNE,17,0.0,1.0,67,0.00,,,0.00,0,LWC V2.10 B1813,2013-06-18 06:30:00,
2013-06-18 01:35:00,68.9,57.9,29.94,NNE,17,0.0,0.0,68,0.00,,,0.00,0,LWC V2.10 B1813,2013-06-18 06:35:00,
2013-06-18 01:40:00,68.6,57.6,29.95,NNE,17,0.0,0.0,68,0.00,,,0.00,0,LWC V2.10 B1813,2013-06-18 06:40:00,
2013-06-18 01:45:00,68.3,57.3,29.95,NNE,17,0.0,1.0,68,0.00,,,0.00,0,LWC V2.10 B1813,2013-06-18 06:45:00,
2013-06-18 01:50:00,68.1,57.5,29.95,NNE,18,0.0,0.0,69,0.00,,,0.00,0,LWC V2.10 B1813,2013-06-18 06:50:00,
2013-06-18 01:55:00,68.0,57.4,29.95,NNE,18,0.0,0.0,69,0.00,,,0.00,0,LWC V2.10 B1813,2013-06-18 06:55:00,
2013-06-18 02:00:00,67.9,57.3,29.95,NNE,17,0.0,0.0,69,0.00,,,0.00,0,LWC V2.10 B1813,2013-06-18 07:00:00,
2013-06-18 02:05:00,67.9,57.3,29.95,NNE,18,0.0,0.0,69,0.00,,,0.00,0,LWC V2.10 B1813,2013-06-18 07:05:00,
2013-06-18 02:10:00,67.8,57.2,29.95,NNE,17,0.0,0.0,69,0.00,,,0.00,0,LWC V2.10 B1813,2013-06-18 07:10:00,
2013-06-18 02:15:00,67.9,57.7,29.95,NNE,17,0.0,0.0,70,0.00,,,0.00,0,LWC V2.10 B1813,2013-06-18 07:15:00,
2013-06-18 02:20:00,67.8,57.6,29.95,NNE,18,0.0,0.0,70,0.00,,,0.00,0,LWC V2.10 B1813,2013-06-18 07:20:00,
2013-06-18 02:25:00,67.8,57.6,29.95,NNE,17,0.0,0.0,70,0.00,,,0.00,0,LWC V2.10 B1813,2013-06-18 07:25:00,
2013-06-18 02:30:00,67.9,57.7,29.95,NNE,22,0.0,0.0,70,0.00,,,0.00,0,WeatherCatV1.15B25,2013-06-18 07:30:00,
2013-06-18 02:35:00,67.9,57.7,29.95,NNE,22,0.0,0.0,70,0.00,,,0.00,0,WeatherCatV1.15B25,2013-06-18 07:35:00,
2013-06-18 02:37:00,67.7,57.6,29.95,NNE,17,0.0,0.0,70,0.00,,,0.00,0,LWC V2.10 B1813,2013-06-18 07:37:00,
2013-06-18 02:40:00,67.7,57.6,29.95,NNE,17,0.0,0.0,70,0.00,,,0.00,0,LWC V2.10 B1813,2013-06-18 07:40:00,
2013-06-18 02:45:00,67.7,57.6,29.95,NNE,18,0.0,1.0,70,0.00,,,0.00,0,LWC V2.10 B1813,2013-06-18 07:45:00,
2013-06-18 02:50:00,67.7,57.2,29.95,NNE,17,0.0,0.0,69,0.00,,,0.00,0,LWC V2.10 B1813,2013-06-18 07:50:00,
2013-06-18 02:55:00,67.6,57.5,29.95,NNE,17,0.0,0.0,70,0.00,,,0.00,0,LWC V2.10 B1813,2013-06-18 07:55:00,
2013-06-18 03:00:00,67.5,57.4,29.95,NNE,17,0.0,0.0,70,0.00,,,0.00,0,LWC V2.10 B1813,2013-06-18 08:00:00,
2013-06-18 03:05:00,67.5,57.4,29.95,NNE,17,0.0,0.0,70,0.00,,,0.00,0,LWC V2.10 B1813,2013-06-18 08:05:00,
2013-06-18 03:10:00,67.4,57.3,29.94,NNE,17,0.0,0.0,70,0.00,,,0.00,0,LWC V2.10 B1813,2013-06-18 08:10:00,
2013-06-18 03:15:00,67.4,57.3,29.94,NNE,17,0.0,0.0,70,0.00,,,0.00,0,LWC V2.10 B1813,2013-06-18 08:15:00,
2013-06-18 03:20:00,67.3,57.2,29.94,NNE,17,0.0,0.0,70,0.00,,,0.00,0,LWC V2.10 B1813,2013-06-18 08:20:00,
2013-06-18 03:25:00,67.3,57.2,29.94,NNE,18,0.0,0.0,70,0.00,,,0.00,0,LWC V2.10 B1813,2013-06-18 08:25:00,
2013-06-18 03:30:00,67.4,57.3,29.94,NNE,18,0.0,0.0,70,0.00,,,0.00,0,LWC V2.10 B1813,2013-06-18 08:30:00,
2013-06-18 03:35:00,67.4,57.3,29.94,NNE,18,0.0,0.0,70,0.00,,,0.00,0,LWC V2.10 B1813,2013-06-18 08:35:00,
2013-06-18 03:40:00,67.3,57.2,29.94,NNE,17,0.0,0.0,70,0.00,,,0.00,0,LWC V2.10 B1813,2013-06-18 08:40:00,
2013-06-18 03:45:00,67.2,57.1,29.94,NNE,17,0.0,0.0,70,0.00,,,0.00,0,LWC V2.10 B1813,2013-06-18 08:45:00,
2013-06-18 03:50:00,67.0,56.9,29.94,NNE,17,0.0,0.0,70,0.00,,,0.00,0,LWC V2.10 B1813,2013-06-18 08:50:00,
2013-06-18 03:55:00,66.7,57.0,29.94,NNE,17,0.0,0.0,71,0.00,,,0.00,0,LWC V2.10 B1813,2013-06-18 08:55:00,
2013-06-18 04:00:00,66.4,56.7,29.94,NNE,17,0.0,0.0,71,0.00,,,0.00,0,LWC V2.10 B1813,2013-06-18 09:00:00,
2013-06-18 04:05:00,66.3,57.0,29.94,NNE,17,0.0,0.0,72,0.00,,,0.00,0,LWC V2.10 B1813,2013-06-18 09:05:00,
2013-06-18 04:10:00,66.2,57.3,29.94,NNE,17,0.0,1.0,73,0.00,,,0.00,0,LWC V2.10 B1813,2013-06-18 09:10:00,
2013-06-18 04:15:00,66.2,56.9,29.94,NNE,17,0.0,2.0,72,0.00,,,0.00,0,LWC V2.10 B1813,2013-06-18 09:15:00,
2013-06-18 04:20:00,66.3,57.0,29.94,NNE,17,0.0,0.0,72,0.00,,,0.00,0,LWC V2.10 B1813,2013-06-18 09:20:00,
2013-06-18 04:25:00,66.0,57.8,29.94,NNE,17,0.0,0.0,75,0.00,,,0.00,0,LWC V2.10 B1813,2013-06-18 09:25:00,
2013-06-18 04:30:00,65.3,57.9,29.93,NNE,18,2.0,4.0,77,0.00,,,0.00,0,LWC V2.10 B1813,2013-06-18 09:30:00,
2013-06-18 04:35:00,65.0,57.6,29.93,NNE,18,0.0,4.0,77,0.00,,,0.01,0,LWC V2.10 B1813,2013-06-18 09:35:00,
2013-06-18 04:40:00,64.9,57.5,29.93,NNE,18,0.0,1.0,77,0.00,,,0.01,0,LWC V2.10 B1813,2013-06-18 09:40:00,
2013-06-18 04:45:00,65.0,57.2,29.92,NNE,18,0.0,2.0,76,0.00,,,0.01,0,LWC V2.10 B1813,2013-06-18 09:45:00,
2013-06-18 04:50:00,65.3,57.2,29.93,NNE,18,0.0,0.0,75,0.00,,,0.01,0,LWC V2.10 B1813,2013-06-18 09:50:00,
2013-06-18 04:55:00,65.3,57.2,29.93,NNE,17,1.0,2.0,75,0.00,,,0.01,0,LWC V2.10 B1813,2013-06-18 09:55:00,
2013-06-18 05:00:00,65.6,56.7,29.92,NNE,18,0.0,3.0,73,0.00,,,0.01,0,LWC V2.10 B1813,2013-06-18 10:00:00,
2013-06-18 05:05:00,65.7,56.8,29.92,NNE,18,0.0,0.0,73,0.00,,,0.01,0,LWC V2.10 B1813,2013-06-18 10:05:00,
2013-06-18 05:10:00,65.5,56.6,29.92,NNE,18,0.0,0.0,73,0.00,,,0.01,0,LWC V2.10 B1813,2013-06-18 10:10:00,
2013-06-18 05:15:00,65.6,56.3,29.92,NNE,18,0.0,2.0,72,0.00,,,0.01,0,LWC V2.10 B1813,2013-06-18 10:15:00,
2013-06-18 05:20:00,65.5,56.6,29.92,NNE,17,0.0,1.0,73,0.00,,,0.01,0,LWC V2.10 B1813,2013-06-18 10:20:00,
2013-06-18 05:25:00,65.3,56.4,29.92,NNE,18,1.0,2.0,73,0.00,,,0.01,0,LWC V2.10 B1813,2013-06-18 10:25:00,
2013-06-18 05:30:00,65.3,56.4,29.92,NNE,18,1.0,2.0,73,0.00,,,0.01,0,LWC V2.10 B1813,2013-06-18 10:30:00,
2013-06-18 05:35:00,65.3,56.4,29.92,NNE,18,0.0,0.0,73,0.00,,,0.01,0,LWC V2.10 B1813,2013-06-18 10:35:00,
2013-06-18 05:40:00,65.1,56.6,29.92,NNE,18,1.0,3.0,74,0.00,,,0.01,0,LWC V2.10 B1813,2013-06-18 10:40:00,
2013-06-18 05:45:00,65.2,56.3,29.93,NNE,17,0.0,3.0,73,0.00,,,0.01,0,LWC V2.10 B1813,2013-06-18 10:45:00,
2013-06-18 05:50:00,65.3,56.4,29.93,NNE,17,2.0,2.0,73,0.00,,,0.01,0,LWC V2.10 B1813,2013-06-18 10:50:00,
2013-06-18 05:55:00,65.4,56.1,29.93,NNE,17,0.0,2.0,72,0.00,,,0.01,0,LWC V2.10 B1813,2013-06-18 10:55:00,
2013-06-18 06:00:00,65.4,56.1,29.93,NNE,17,0.0,3.0,72,0.00,,,0.01,11,LWC V2.10 B1813,2013-06-18 11:00:00,
2013-06-18 06:05:00,65.2,56.3,29.93,NNE,18,2.0,2.0,73,0.00,,,0.01,11,LWC V2.10 B1813,2013-06-18 11:05:00,
2013-06-18 06:10:00,65.2,56.3,29.93,NNE,17,0.0,0.0,73,0.00,,,0.01,9,LWC V2.10 B1813,2013-06-18 11:10:00,
2013-06-18 06:15:00,65.0,56.1,29.93,NNE,18,0.0,1.0,73,0.00,,,0.01,12,LWC V2.10 B1813,2013-06-18 11:15:00,
2013-06-18 06:20:00,64.9,56.0,29.93,NNE,18,0.0,0.0,73,0.00,,,0.01,14,LWC V2.10 B1813,2013-06-18 11:20:00,
2013-06-18 06:25:00,64.9,56.0,29.93,NNE,17,0.0,4.0,73,0.00,,,0.01,14,LWC V2.10 B1813,2013-06-18 11:25:00,
2013-06-18 06:30:00,64.9,56.0,29.93,NNE,18,0.0,2.0,73,0.00,,,0.01,14,LWC V2.10 B1813,2013-06-18 11:30:00,
2013-06-18 06:35:00,64.9,56.0,29.94,NNE,18,0.0,0.0,73,0.00,,,0.01,18,LWC V2.10 B1813,2013-06-18 11:35:00,
2013-06-18 06:40:00,64.8,56.3,29.94,NNE,18,0.0,0.0,74,0.00,,,0.01,19,LWC V2.10 B1813,2013-06-18 11:40:00,
2013-06-18 06:45:00,64.7,56.2,29.94,NNE,17,2.0,3.0,74,0.00,,,0.01,23,LWC V2.10 B1813,2013-06-18 11:45:00,
2013-06-18 06:50:00,64.8,56.3,29.94,NNE,17,0.0,0.0,74,0.00,,,0.01,26,LWC V2.10 B1813,2013-06-18 11:50:00,
2013-06-18 06:55:00,64.8,55.9,29.94,NNE,18,0.0,2.0,73,0.00,,,0.01,32,LWC V2.10 B1813,2013-06-18 11:55:00,
2013-06-18 07:00:00,64.9,56.0,29.94,NNE,18,0.0,0.0,73,0.00,,,0.01,35,LWC V2.10 B1813,2013-06-18 12:00:00,
2013-06-18 07:05:00,65.0,56.1,29.94,NNE,17,0.0,0.0,73,0.00,,,0.01,37,LWC V2.10 B1813,2013-06-18 12:05:00,
2013-06-18 07:10:00,65.1,56.2,29.94,NNE,18,0.0,1.0,73,0.00,,,0.01,33,LWC V2.10 B1813,2013-06-18 12:10:00,
2013-06-18 07:15:00,65.2,56.3,29.94,NNE,18,0.0,1.0,73,0.00,,,0.01,39,LWC V2.10 B1813,2013-06-18 12:15:00,
2013-06-18 07:20:00,65.2,56.3,29.95,NNE,17,0.0,0.0,73,0.00,,,0.01,47,LWC V2.10 B1813,2013-06-18 12:20:00,
2013-06-18 07:25:00,65.2,57.1,29.95,NNE,18,2.0,2.0,75,0.00,,,0.01,60,LWC V2.10 B1813,2013-06-18 12:25:00,
2013-06-18 07:30:00,65.1,56.6,29.97,NNE,17,2.0,5.0,74,0.00,,,0.01,62,LWC V2.10 B1813,2013-06-18 12:30:00,
2013-06-18 07:35:00,65.2,56.7,29.97,NNE,17,0.0,1.0,74,0.00,,,0.01,70,LWC V2.10 B1813,2013-06-18 12:35:00,
2013-06-18 07:40:00,65.3,56.8,29.98,NNE,17,1.0,6.0,74,0.00,,,0.01,81,LWC V2.10 B1813,2013-06-18 12:40:00,
2013-06-18 07:45:00,65.5,56.6,29.98,NNE,13,0.0,3.0,73,0.00,,,0.01,93,LWC V2.10 B1813,2013-06-18 12:45:00,
2013-06-18 07:50:00,65.7,56.8,29.98,NNE,13,0.0,4.0,73,0.00,,,0.01,113,LWC V2.10 B1813,2013-06-18 12:50:00,
2013-06-18 07:55:00,66.0,57.1,29.98,NNE,13,1.0,4.0,73,0.00,,,0.01,123,LWC V2.10 B1813,2013-06-18 12:55:00,
2013-06-18 08:00:00,66.1,57.2,29.98,NNE,13,0.0,1.0,73,0.00,,,0.01,134,LWC V2.10 B1813,2013-06-18 13:00:00,
2013-06-18 08:05:00,66.4,57.1,29.98,NNE,13,0.0,0.0,72,0.00,,,0.01,148,LWC V2.10 B1813,2013-06-18 13:05:00,
2013-06-18 08:10:00,66.7,57.0,29.98,NNE,13,0.0,0.0,71,0.00,,,0.01,146,LWC V2.10 B1813,2013-06-18 13:10:00,
2013-06-18 08:15:00,67.0,57.3,29.98,NNE,13,0.0,0.0,71,0.00,,,0.01,156,LWC V2.10 B1813,2013-06-18 13:15:00,
2013-06-18 08:20:00,67.3,57.6,29.98,NNE,12,4.0,4.0,71,0.00,,,0.01,156,LWC V2.10 B1813,2013-06-18 13:20:00,
2013-06-18 08:25:00,67.5,57.8,29.97,North,11,0.0,0.0,71,0.00,,,0.01,160,LWC V2.10 B1813,2013-06-18 13:25:00,
2013-06-18 08:30:00,67.7,57.6,29.97,NNE,13,0.0,0.0,70,0.00,,,0.01,163,LWC V2.10 B1813,2013-06-18 13:30:00,
2013-06-18 08:35:00,68.0,57.4,29.98,NNE,12,0.0,1.0,69,0.00,,,0.01,151,LWC V2.10 B1813,2013-06-18 13:35:00,
2013-06-18 08:40:00,68.3,58.5,29.97,North,11,0.0,0.0,71,0.00,,,0.01,127,LWC V2.10 B1813,2013-06-18 13:40:00,
2013-06-18 08:45:00,68.4,58.2,29.97,North,11,0.0,0.0,70,0.00,,,0.01,118,LWC V2.10 B1813,2013-06-18 13:45:00,
2013-06-18 08:50:00,68.4,57.4,29.97,North,11,0.0,0.0,68,0.00,,,0.01,123,LWC V2.10 B1813,2013-06-18 13:50:00,
2013-06-18 08:55:00,68.5,58.3,29.97,North,11,0.0,0.0,70,0.00,,,0.01,139,LWC V2.10 B1813,2013-06-18 13:55:00,
2013-06-18 09:00:00,68.3,58.1,29.97,North,11,0.0,0.0,70,0.00,,,0.01,165,LWC V2.10 B1813,2013-06-18 14:00:00,
2013-06-18 09:05:00,68.2,57.6,29.96,North,11,0.0,1.0,69,0.00,,,0.01,188,LWC V2.10 B1813,2013-06-18 14:05:00,
2013-06-18 09:10:00,68.3,57.7,29.97,North,11,0.0,3.0,69,0.00,,,0.01,216,LWC V2.10 B1813,2013-06-18 14:10:00,
2013-06-18 09:15:00,68.6,58.4,29.97,North,11,0.0,0.0,70,0.00,,,0.01,241,LWC V2.10 B1813,2013-06-18 14:15:00,
2013-06-18 09:20:00,69.1,58.5,29.96,North,11,0.0,0.0,69,0.00,,,0.01,264,LWC V2.10 B1813,2013-06-18 14:20:00,
2013-06-18 09:25:00,69.4,58.0,29.96,North,11,0.0,1.0,67,0.00,,,0.01,265,LWC V2.10 B1813,2013-06-18 14:25:00,
2013-06-18 09:30:00,69.6,57.3,29.96,North,11,3.0,4.0,65,0.00,,,0.01,295,LWC V2.10 B1813,2013-06-18 14:30:00,
2013-06-18 09:35:00,69.6,56.9,29.96,North,5,2.0,4.0,64,0.00,,,0.01,357,LWC V2.10 B1813,2013-06-18 14:35:00,
2013-06-18 09:40:00,69.8,57.1,29.96,North,5,1.0,2.0,64,0.00,,,0.01,380,LWC V2.10 B1813,2013-06-18 14:40:00,
2013-06-18 09:45:00,70.3,58.0,29.96,North,0,2.0,3.0,65,0.00,,,0.01,476,LWC V2.10 B1813,2013-06-18 14:45:00,
2013-06-18 09:50:00,70.9,58.5,29.95,North,5,1.0,2.0,65,0.00,,,0.01,568,LWC V2.10 B1813,2013-06-18 14:50:00,
2013-06-18 09:55:00,71.5,58.2,29.96,NNE,22,0.0,1.0,63,0.00,,,0.01,547,LWC V2.10 B1813,2013-06-18 14:55:00,
2013-06-18 10:00:00,72.2,59.3,29.96,NNE,22,1.0,4.0,64,0.00,,,0.01,628,LWC V2.10 B1813,2013-06-18 15:00:00,
2013-06-18 10:05:00,72.5,59.2,29.95,NNE,30,2.0,4.0,63,0.00,,,0.01,406,LWC V2.10 B1813,2013-06-18 15:05:00,
2013-06-18 10:10:00,71.9,58.6,29.95,ENE,59,0.0,3.0,63,0.00,,,0.01,429,LWC V2.10 B1813,2013-06-18 15:10:00,
2013-06-18 10:15:00,71.7,58.9,29.95,ESE,102,3.0,3.0,64,0.00,,,0.01,371,LWC V2.10 B1813,2013-06-18 15:15:00,
2013-06-18 10:20:00,71.6,58.3,29.94,East,85,2.0,7.0,63,0.00,,,0.01,399,LWC V2.10 B1813,2013-06-18 15:20:00,
2013-06-18 10:25:00,71.6,58.8,29.95,East,84,2.0,4.0,64,0.00,,,0.01,596,LWC V2.10 B1813,2013-06-18 15:25:00,
2013-06-18 10:30:00,72.2,59.8,29.95,East,82,4.0,6.0,65,0.00,,,0.01,459,LWC V2.10 B1813,2013-06-18 15:30:00,
2013-06-18 10:35:00,72.2,58.9,29.95,NNE,22,2.0,12.0,63,0.00,,,0.00,428,WeatherCatV1.15B25,2013-06-18 15:35:00,
2013-06-18 10:40:00,72.5,58.3,29.95,ESE,109,3.0,13.0,61,0.00,,,0.00,492,WeatherCatV1.15B25,2013-06-18 15:40:00,
2013-06-18 10:45:00,72.3,58.5,29.94,ESE,114,4.0,10.0,62,0.00,,,0.00,462,WeatherCatV1.15B25,2013-06-18 15:45:00,
2013-06-18 10:50:00,72.1,57.4,29.95,ESE,114,4.0,16.0,60,0.00,,,0.00,420,WeatherCatV1.15B25,2013-06-18 15:50:00,
2013-06-18 10:55:00,72.1,58.3,29.95,ESE,111,5.0,6.0,62,0.00,,,0.00,445,WeatherCatV1.15B25,2013-06-18 15:55:00,
2013-06-18 11:00:00,72.6,58.8,29.94,ESE,103,4.0,7.0,62,0.00,,,0.00,462,WeatherCatV1.15B25,2013-06-18 16:00:00,
2013-06-18 11:05:00,72.7,58.5,29.94,East,93,3.0,7.0,61,0.00,,,0.00,552,WeatherCatV1.15B25,2013-06-18 16:05:00,
2013-06-18 11:10:00,72.7,58.9,29.94,East,81,3.0,7.0,62,0.00,,,0.00,550,WeatherCatV1.15B25,2013-06-18 16:10:00,
2013-06-18 11:15:00,73.2,58.9,29.94,East,86,3.0,16.0,61,0.00,,,0.00,991,WeatherCatV1.15B25,2013-06-18 16:15:00,
2013-06-18 11:20:00,73.7,59.4,29.95,ESE,105,4.0,5.0,61,0.00,,,0.00,519,WeatherCatV1.15B25,2013-06-18 16:20:00,
2013-06-18 11:25:00,74.1,59.8,29.94,ESE,118,4.0,6.0,61,0.00,,,0.00,740,WeatherCatV1.15B25,2013-06-18 16:25:00,
2013-06-18 11:30:00,74.5,60.2,29.94,ESE,118,3.0,9.0,61,0.00,,,0.00,624,WeatherCatV1.15B25,2013-06-18 16:30:00,
2013-06-18 11:35:00,74.5,60.6,29.94,ESE,114,3.0,5.0,62,0.00,,,0.00,487,WeatherCatV1.15B25,2013-06-18 16:35:00,
2013-06-18 11:40:00,74.9,60.1,29.94,ESE,107,2.0,6.0,60,0.00,,,0.00,863,WeatherCatV1.15B25,2013-06-18 16:40:00,
2013-06-18 11:45:00,75.2,59.4,29.95,East,94,2.0,2.0,58,0.00,,,0.00,573,WeatherCatV1.15B25,2013-06-18 16:45:00,
2013-06-18 11:50:00,75.1,58.8,29.95,East,91,2.0,11.0,57,0.00,,,0.00,318,WeatherCatV1.15B25,2013-06-18 16:50:00,
2013-06-18 11:55:00,75.3,59.0,29.95,ESE,104,3.0,5.0,57,0.00,,,0.00,911,WeatherCatV1.15B25,2013-06-18 16:55:00,
2013-06-18 12:00:00,76.1,60.7,29.95,ESE,106,3.0,3.0,59,0.00,,,0.00,916,WeatherCatV1.15B25,2013-06-18 17:00:00,
2013-06-18 12:05:00,75.9,59.6,29.95,ESE,112,4.0,9.0,57,0.00,,,0.00,981,WeatherCatV1.15B25,2013-06-18 17:05:00,
2013-06-18 12:10:00,76.0,60.1,29.94,ESE,110,4.0,5.0,58,0.00,,,0.00,826,WeatherCatV1.15B25,2013-06-18 17:10:00,
2013-06-18 12:15:00,76.5,60.1,29.95,ESE,112,3.0,6.0,57,0.00,,,0.00,970,WeatherCatV1.15B25,2013-06-18 17:15:00,
2013-06-18 12:20:00,76.8,60.4,29.95,ESE,115,3.0,5.0,57,0.00,,,0.00,656,WeatherCatV1.15B25,2013-06-18 17:20:00,
2013-06-18 12:25:00,76.5,58.6,29.95,ESE,118,4.0,10.0,54,0.00,,,0.00,979,WeatherCatV1.15B25,2013-06-18 17:25:00,
2013-06-18 12:30:00,76.6,60.2,29.94,ESE,113,5.0,5.0,57,0.00,,,0.00,972,WeatherCatV1.15B25,2013-06-18 17:30:00,
2013-06-18 12:35:00,77.2,60.3,29.94,ESE,112,4.0,6.0,56,0.00,,,0.00,970,WeatherCatV1.15B25,2013-06-18 17:35:00,
2013-06-18 12:40:00,77.6,60.1,29.94,ESE,115,4.0,11.0,55,0.00,,,0.00,972,WeatherCatV1.15B25,2013-06-18 17:40:00,
2013-06-18 12:45:00,77.6,60.1,29.94,ESE,118,4.0,6.0,55,0.00,,,0.00,972,WeatherCatV1.15B25,2013-06-18 17:45:00,
2013-06-18 12:50:00,77.7,59.7,29.94,ESE,121,5.0,11.0,54,0.00,,,0.00,974,WeatherCatV1.15B25,2013-06-18 17:50:00,
2013-06-18 12:55:00,78.4,60.4,29.94,ESE,114,4.0,4.0,54,0.00,,,0.00,984,WeatherCatV1.15B25,2013-06-18 17:55:00,
2013-06-18 13:00:00,78.3,60.3,29.94,ESE,107,3.0,4.0,54,0.00,,,0.00,977,WeatherCatV1.15B25,2013-06-18 18:00:00,
2013-06-18 13:05:00,78.4,59.8,29.94,ESE,104,3.0,7.0,53,0.00,,,0.00,983,WeatherCatV1.15B25,2013-06-18 18:05:00,
2013-06-18 13:10:00,78.0,60.0,29.94,ESE,110,4.0,5.0,54,0.00,,,0.00,984,WeatherCatV1.15B25,2013-06-18 18:10:00,
2013-06-18 13:15:00,78.3,59.7,29.94,ESE,111,5.0,5.0,53,0.00,,,0.00,981,WeatherCatV1.15B25,2013-06-18 18:15:00,
2013-06-18 13:20:00,78.7,60.6,29.94,ESE,113,4.0,8.0,54,0.00,,,0.00,984,WeatherCatV1.15B25,2013-06-18 18:20:00,
2013-06-18 13:25:00,78.8,60.2,29.94,ESE,108,4.0,4.0,53,0.00,,,0.00,972,WeatherCatV1.15B25,2013-06-18 18:25:00,
2013-06-18 13:30:00,78.9,60.3,29.94,East,88,3.0,5.0,53,0.00,,,0.00,981,WeatherCatV1.15B25,2013-06-18 18:30:00,
2013-06-18 13:35:00,78.8,60.7,29.94,ESE,104,3.0,4.0,54,0.00,,,0.00,995,WeatherCatV1.15B25,2013-06-18 18:35:00,
2013-06-18 13:40:00,79.7,61.6,29.94,ESE,108,3.0,3.0,54,0.00,,,0.00,1000,WeatherCatV1.15B25,2013-06-18 18:40:00,
2013-06-18 13:45:00,80.5,61.8,29.93,ESE,103,2.0,5.0,53,0.00,,,0.00,998,WeatherCatV1.15B25,2013-06-18 18:45:00,
2013-06-18 13:50:00,80.4,60.0,29.93,ENE,76,2.0,5.0,50,0.00,,,0.00,998,WeatherCatV1.15B25,2013-06-18 18:50:00,
2013-06-18 14:01:00,79.9,60.1,29.93,ESE,102,3.0,11.0,51,0.00,,,0.00,1004,WeatherCatV1.15B25,2013-06-18 19:01:00,
2013-06-18 14:06:00,80.2,61.0,29.93,ENE,74,2.0,4.0,52,0.00,,,0.01,1000,WeatherCatV1.15B25,2013-06-18 19:06:00,
2013-06-18 14:11:00,80.7,60.9,29.92,ESE,117,1.0,5.0,51,0.00,,,0.01,1004,WeatherCatV1.15B25,2013-06-18 19:11:00,
2013-06-18 14:16:00,81.3,62.0,29.92,ESE,117,2.0,2.0,52,0.00,,,0.01,1013,WeatherCatV1.15B25,2013-06-18 19:16:00,
2013-06-18 14:21:00,82.3,62.3,29.92,ESE,109,3.0,7.0,51,0.00,,,0.01,1002,WeatherCatV1.15B25,2013-06-18 19:21:00,
2013-06-18 14:26:00,81.5,61.6,29.92,SE,125,2.0,11.0,51,0.00,,,0.01,1051,WeatherCatV1.15B25,2013-06-18 19:26:00,
2013-06-18 14:31:00,81.0,61.7,29.92,ESE,113,0.0,11.0,52,0.00,,,0.01,997,WeatherCatV1.15B25,2013-06-18 19:31:00,
2013-06-18 14:36:00,81.8,60.7,29.92,East,98,9.0,10.0,49,0.00,,,0.01,995,WeatherCatV1.15B25,2013-06-18 19:36:00,
2013-06-18 14:41:00,81.7,60.7,29.91,SE,134,3.0,9.0,49,0.00,,,0.01,972,WeatherCatV1.15B25,2013-06-18 19:41:00,
2013-06-18 14:46:00,82.5,60.8,29.92,SE,128,0.0,7.0,48,0.00,,,0.01,953,WeatherCatV1.15B25,2013-06-18 19:46:00,
2013-06-18 14:51:00,82.2,59.9,29.92,SE,138,2.0,11.0,47,0.00,,,0.01,954,WeatherCatV1.15B25,2013-06-18 19:51:00,
2013-06-18 14:56:00,81.7,60.1,29.92,SSE,155,5.0,10.0,48,0.00,,,0.01,972,WeatherCatV1.15B25,2013-06-18 19:56:00,
2013-06-18 15:01:00,82.1,61.0,29.92,ESE,110,2.0,6.0,49,0.00,,,0.01,951,WeatherCatV1.15B25,2013-06-18 20:01:00,
2013-06-18 15:06:00,82.8,59.9,29.91,SE,130,7.0,7.0,46,0.00,,,0.01,951,WeatherCatV1.15B25,2013-06-18 20:06:00,
2013-06-18 15:11:00,82.2,59.3,29.91,SE,126,4.0,6.0,46,0.00,,,0.01,967,WeatherCatV1.15B25,2013-06-18 20:11:00,
2013-06-18 15:16:00,82.8,59.3,29.91,SSE,155,0.0,2.0,45,0.00,,,0.01,907,WeatherCatV1.15B25,2013-06-18 20:16:00,
2013-06-18 15:21:00,82.6,58.4,29.91,East,85,0.0,12.0,44,0.00,,,0.01,909,WeatherCatV1.15B25,2013-06-18 20:21:00,
2013-06-18 15:26:00,82.9,58.7,29.91,South,173,2.0,10.0,44,0.00,,,0.01,923,WeatherCatV1.15B25,2013-06-18 20:26:00,
2013-06-18 15:31:00,82.8,59.3,29.91,South,189,0.0,2.0,45,0.00,,,0.01,919,WeatherCatV1.15B25,2013-06-18 20:31:00,
2013-06-18 15:36:00,83.6,59.3,29.90,South,188,0.0,5.0,44,0.00,,,0.01,912,WeatherCatV1.15B25,2013-06-18 20:36:00,
2013-06-18 15:41:00,83.7,58.8,29.90,ESE,109,2.0,11.0,43,0.00,,,0.01,884,WeatherCatV1.15B25,2013-06-18 20:41:00,
2013-06-18 15:46:00,82.5,58.4,29.90,ESE,114,0.0,9.0,44,0.00,,,0.01,925,WeatherCatV1.15B25,2013-06-18 20:46:00,
2013-06-18 15:51:00,81.8,59.0,29.90,ESE,123,0.0,6.0,46,0.00,,,0.01,854,WeatherCatV1.15B25,2013-06-18 20:51:00,
2013-06-18 15:56:00,81.6,59.4,29.90,SE,142,3.0,11.0,47,0.00,,,0.01,844,WeatherCatV1.15B25,2013-06-18 20:56:00,
2013-06-18 16:01:00,82.1,59.2,29.89,SE,136,2.0,4.0,46,0.00,,,0.01,826,WeatherCatV1.15B25,2013-06-18 21:01:00,
2013-06-18 16:06:00,82.2,59.9,29.89,SE,133,1.0,4.0,47,0.00,,,0.01,831,WeatherCatV1.15B25,2013-06-18 21:06:00,
2013-06-18 16:11:00,82.1,58.6,29.88,ESE,110,2.0,5.0,45,0.00,,,0.01,840,WeatherCatV1.15B25,2013-06-18 21:11:00,
2013-06-18 16:16:00,82.1,59.8,29.88,ESE,112,1.0,2.0,47,0.00,,,0.01,854,WeatherCatV1.15B25,2013-06-18 21:16:00,
2013-06-18 16:21:00,82.5,59.6,29.88,SE,130,1.0,7.0,46,0.00,,,0.01,209,WeatherCatV1.15B25,2013-06-18 21:21:00,
2013-06-18 16:26:00,82.2,59.9,29.88,SE,130,0.0,0.0,47,0.00,,,0.01,269,WeatherCatV1.15B25,2013-06-18 21:26:00,
2013-06-18 16:31:00,81.9,59.7,29.88,SE,130,1.0,7.0,47,0.00,,,0.01,432,WeatherCatV1.15B25,2013-06-18 21:31:00,
2013-06-18 16:36:00,82.3,60.0,29.88,SSE,163,4.0,6.0,47,0.00,,,0.01,1004,WeatherCatV1.15B25,2013-06-18 21:36:00,
2013-06-18 16:41:00,82.7,60.4,29.89,SE,144,3.0,3.0,47,0.00,,,0.01,548,WeatherCatV1.15B25,2013-06-18 21:41:00,
2013-06-18 16:46:00,82.2,59.9,29.88,SE,135,2.0,3.0,47,0.00,,,0.01,269,WeatherCatV1.15B25,2013-06-18 21:46:00,
2013-06-18 16:51:00,81.5,59.3,29.88,SE,138,0.0,4.0,47,0.00,,,0.01,359,WeatherCatV1.15B25,2013-06-18 21:51:00,
2013-06-18 16:56:00,81.2,58.4,29.88,SE,136,5.0,7.0,46,0.00,,,0.01,315,WeatherCatV1.15B25,2013-06-18 21:56:00,
2013-06-18 17:01:00,80.8,59.2,29.88,SE,130,1.0,4.0,48,0.00,,,0.01,717,WeatherCatV1.15B25,2013-06-18 22:01:00,
2013-06-18 17:06:00,81.6,60.6,29.88,SE,137,5.0,9.0,49,0.00,,,0.01,677,WeatherCatV1.15B25,2013-06-18 22:06:00,
2013-06-18 17:11:00,81.9,59.1,29.88,ESE,122,1.0,6.0,46,0.00,,,0.01,698,WeatherCatV1.15B25,2013-06-18 22:11:00,
2013-06-18 17:16:00,82.8,59.9,29.87,SE,129,5.0,5.0,46,0.00,,,0.01,773,WeatherCatV1.15B25,2013-06-18 22:16:00,
2013-06-18 17:21:00,82.5,60.2,29.87,SE,126,10.0,10.0,47,0.00,,,0.01,362,WeatherCatV1.15B25,2013-06-18 22:21:00,
2013-06-18 17:26:00,81.2,59.0,29.88,SE,126,3.0,4.0,47,0.00,,,0.01,192,WeatherCatV1.15B25,2013-06-18 22:26:00,
2013-06-18 17:31:00,81.2,59.6,29.88,ESE,108,9.0,10.0,48,0.00,,,0.01,744,WeatherCatV1.15B25,2013-06-18 22:31:00,
2013-06-18 17:37:00,81.9,59.7,29.87,SE,130,3.0,14.0,47,0.00,,,0.01,749,WeatherCatV1.15B25,2013-06-18 22:37:00,
2013-06-18 17:42:00,82.3,61.2,29.87,SE,137,3.0,4.0,49,0.00,,,0.01,687,WeatherCatV1.15B25,2013-06-18 22:42:00,
2013-06-18 17:47:00,81.9,59.7,29.87,ESE,104,3.0,6.0,47,0.00,,,0.01,204,WeatherCatV1.15B25,2013-06-18 22:47:00,
2013-06-18 17:52:00,81.6,60.6,29.87,ESE,105,0.0,5.0,49,0.00,,,0.01,543,WeatherCatV1.15B25,2013-06-18 22:52:00,
2013-06-18 17:57:00,81.9,60.3,29.87,ESE,114,1.0,5.0,48,0.00,,,0.01,531,WeatherCatV1.15B25,2013-06-18 22:57:00,
2013-06-18 18:02:00,82.0,60.3,29.86,SE,126,3.0,6.0,48,0.00,,,0.01,497,WeatherCatV1.15B25,2013-06-18 23:02:00,
2013-06-18 18:07:00,81.8,60.2,29.86,ESE,121,2.0,3.0,48,0.00,,,0.01,485,WeatherCatV1.15B25,2013-06-18 23:07:00,
2013-06-18 18:12:00,82.0,60.9,29.86,ESE,107,4.0,10.0,49,0.00,,,0.01,473,WeatherCatV1.15B25,2013-06-18 23:12:00,
2013-06-18 18:17:00,82.0,60.3,29.86,SE,134,3.0,7.0,48,0.00,,,0.01,455,WeatherCatV1.15B25,2013-06-18 23:17:00,
2013-06-18 18:22:00,81.8,60.7,29.86,ESE,114,2.0,3.0,49,0.00,,,0.01,443,WeatherCatV1.15B25,2013-06-18 23:22:00,
2013-06-18 18:27:00,81.6,60.6,29.86,SE,133,3.0,9.0,49,0.00,,,0.01,429,WeatherCatV1.15B25,2013-06-18 23:27:00,
2013-06-18 18:32:00,81.2,60.2,29.86,ESE,109,2.0,6.0,49,0.00,,,0.01,408,WeatherCatV1.15B25,2013-06-18 23:32:00,
2013-06-18 18:37:00,81.1,60.7,29.86,SE,132,4.0,10.0,50,0.00,,,0.01,397,WeatherCatV1.15B25,2013-06-18 23:37:00,
2013-06-18 18:42:00,81.5,61.6,29.86,East,92,4.0,9.0,51,0.00,,,0.01,381,WeatherCatV1.15B25,2013-06-18 23:42:00,
2013-06-18 18:47:00,81.1,60.7,29.86,SE,146,5.0,14.0,50,0.00,,,0.01,364,WeatherCatV1.15B25,2013-06-18 23:47:00,
2013-06-18 18:52:00,80.7,59.7,29.85,SSE,165,7.0,12.0,49,0.00,,,0.01,350,WeatherCatV1.15B25,2013-06-18 23:52:00,
2013-06-18 18:57:00,80.5,60.7,29.86,SSE,159,5.0,10.0,51,0.00,,,0.01,330,WeatherCatV1.15B25,2013-06-18 23:57:00,
2013-06-18 19:02:00,80.4,60.6,29.86,ESE,114,5.0,6.0,51,0.00,,,0.01,309,WeatherCatV1.15B25,2013-06-19 00:02:00,
2013-06-18 19:07:00,80.3,60.5,29.86,ESE,118,3.0,10.0,51,0.00,,,0.01,297,WeatherCatV1.15B25,2013-06-19 00:07:00,
2013-06-18 19:12:00,80.2,60.4,29.85,ESE,116,2.0,14.0,51,0.00,,,0.01,281,WeatherCatV1.15B25,2013-06-19 00:12:00,
2013-06-18 19:17:00,80.0,60.8,29.85,ESE,103,5.0,14.0,52,0.00,,,0.01,264,WeatherCatV1.15B25,2013-06-19 00:17:00,
2013-06-18 19:22:00,80.2,61.0,29.86,ESE,122,2.0,4.0,52,0.00,,,0.01,251,WeatherCatV1.15B25,2013-06-19 00:22:00,
2013-06-18 19:27:00,80.2,61.5,29.86,SE,134,1.0,2.0,53,0.00,,,0.01,230,WeatherCatV1.15B25,2013-06-19 00:27:00,
2013-06-18 19:32:00,79.9,60.7,29.85,SSE,166,1.0,14.0,52,0.00,,,0.01,216,WeatherCatV1.15B25,2013-06-19 00:32:00,
2013-06-18 19:37:00,79.7,61.0,29.85,ESE,109,4.0,4.0,53,0.00,,,0.01,197,WeatherCatV1.15B25,2013-06-19 00:37:00,
2013-06-18 19:42:00,79.6,60.9,29.86,ESE,115,3.0,5.0,53,0.00,,,0.01,176,WeatherCatV1.15B25,2013-06-19 00:42:00,
2013-06-18 19:47:00,79.6,61.5,29.86,ESE,108,5.0,7.0,54,0.00,,,0.01,160,WeatherCatV1.15B25,2013-06-19 00:47:00,
2013-06-18 19:52:00,79.3,60.7,29.86,SE,125,11.0,11.0,53,0.00,,,0.01,141,WeatherCatV1.15B25,2013-06-19 00:52:00,
2013-06-18 19:57:00,79.2,61.1,29.85,ESE,117,0.0,10.0,54,0.00,,,0.01,123,WeatherCatV1.15B25,2013-06-19 00:57:00,
2013-06-18 20:02:00,78.9,60.8,29.86,East,99,10.0,11.0,54,0.00,,,0.01,111,WeatherCatV1.15B25,2013-06-19 01:02:00,
2013-06-18 20:07:00,78.7,60.6,29.86,ESE,117,1.0,8.0,54,0.00,,,0.01,100,WeatherCatV1.15B25,2013-06-19 01:07:00,
2013-06-18 20:12:00,78.5,61.0,29.85,SE,135,0.0,11.0,55,0.00,,,0.01,95,WeatherCatV1.15B25,2013-06-19 01:12:00,
2013-06-18 20:17:00,78.4,60.9,29.85,SE,126,4.0,10.0,55,0.00,,,0.01,77,WeatherCatV1.15B25,2013-06-19 01:17:00,
2013-06-18 20:22:00,78.2,60.2,29.86,ESE,119,2.0,10.0,54,0.00,,,0.01,62,WeatherCatV1.15B25,2013-06-19 01:22:00,
2013-06-18 20:27:00,77.9,60.4,29.86,ESE,119,0.0,9.0,55,0.00,,,0.01,47,WeatherCatV1.15B25,2013-06-19 01:27:00,
2013-06-18 20:32:00,77.6,60.6,29.86,ESE,119,0.0,3.0,56,0.00,,,0.01,23,WeatherCatV1.15B25,2013-06-19 01:32:00,
2013-06-18 20:37:00,77.2,60.8,29.86,ESE,113,0.0,2.0,57,0.00,,,0.01,14,WeatherCatV1.15B25,2013-06-19 01:37:00,
2013-06-18 20:42:00,76.7,60.8,29.86,ESE,114,2.0,7.0,58,0.00,,,0.01,11,WeatherCatV1.15B25,2013-06-19 01:42:00,
2013-06-18 20:47:00,76.5,61.1,29.86,ESE,115,2.0,6.0,59,0.00,,,0.01,9,WeatherCatV1.15B25,2013-06-19 01:47:00,
2013-06-18 20:52:00,76.2,61.3,29.86,ESE,113,3.0,6.0,60,0.00,,,0.01,7,WeatherCatV1.15B25,2013-06-19 01:52:00,
2013-06-18 20:57:00,75.8,61.4,29.86,SE,130,9.0,9.0,61,0.00,,,0.01,5,WeatherCatV1.15B25,2013-06-19 01:57:00,
2013-06-18 21:02:00,75.5,61.5,29.86,SE,138,0.0,3.0,62,0.00,,,0.01,5,WeatherCatV1.15B25,2013-06-19 02:02:00,
2013-06-18 21:07:00,75.3,61.4,29.86,SE,130,2.0,4.0,62,0.00,,,0.01,0,WeatherCatV1.15B25,2013-06-19 02:07:00,
2013-06-18 21:12:00,75.1,61.6,29.86,SE,130,0.0,4.0,63,0.00,,,0.01,0,WeatherCatV1.15B25,2013-06-19 02:12:00,
2013-06-18 21:17:00,74.8,61.3,29.86,SE,130,0.0,4.0,63,0.00,,,0.01,0,WeatherCatV1.15B25,2013-06-19 02:17:00,
2013-06-18 21:22:00,74.6,61.6,29.87,SE,130,0.0,4.0,64,0.00,,,0.01,0,WeatherCatV1.15B25,2013-06-19 02:22:00,
2013-06-18 21:27:00,74.5,61.5,29.87,SE,130,0.0,1.0,64,0.00,,,0.01,0,WeatherCatV1.15B25,2013-06-19 02:27:00,
2013-06-18 21:32:00,74.2,61.2,29.87,SE,130,0.0,2.0,64,0.00,,,0.01,0,WeatherCatV1.15B25,2013-06-19 02:32:00,
2013-06-18 21:37:00,73.9,61.4,29.87,SE,130,2.0,2.0,65,0.00,,,0.01,0,WeatherCatV1.15B25,2013-06-19 02:37:00,
2013-06-18 21:42:00,73.7,61.2,29.87,SE,130,1.0,4.0,65,0.00,,,0.01,0,WeatherCatV1.15B25,2013-06-19 02:42:00,
2013-06-18 21:47:00,73.6,61.1,29.88,SE,132,3.0,3.0,65,0.00,,,0.01,0,WeatherCatV1.15B25,2013-06-19 02:47:00,
2013-06-18 21:52:00,73.5,61.4,29.87,SE,132,1.0,5.0,66,0.00,,,0.01,0,WeatherCatV1.15B25,2013-06-19 02:52:00,
2013-06-18 21:57:00,73.3,61.2,29.87,SE,132,0.0,3.0,66,0.00,,,0.01,0,WeatherCatV1.15B25,2013-06-19 02:57:00,
2013-06-18 22:02:00,73.1,61.5,29.87,SE,130,1.0,4.0,67,0.00,,,0.01,0,WeatherCatV1.15B25,2013-06-19 03:02:00,
2013-06-18 22:07:00,72.9,61.3,29.88,SE,130,0.0,2.0,67,0.00,,,0.01,0,WeatherCatV1.15B25,2013-06-19 03:07:00,
2013-06-18 22:12:00,72.9,61.7,29.88,SE,130,0.0,7.0,68,0.00,,,0.01,0,WeatherCatV1.15B25,2013-06-19 03:12:00,
2013-06-18 22:17:00,72.9,61.3,29.88,SE,130,3.0,3.0,67,0.00,,,0.01,0,WeatherCatV1.15B25,2013-06-19 03:17:00,
2013-06-18 22:22:00,72.7,61.5,29.89,SE,130,2.0,2.0,68,0.00,,,0.01,0,WeatherCatV1.15B25,2013-06-19 03:22:00,
2013-06-18 22:27:00,72.5,61.3,29.88,SE,130,1.0,5.0,68,0.00,,,0.01,0,WeatherCatV1.15B25,2013-06-19 03:27:00,
2013-06-18 22:32:00,72.4,61.6,29.88,SE,130,0.0,3.0,69,0.00,,,0.01,0,WeatherCatV1.15B25,2013-06-19 03:32:00,
2013-06-18 22:37:00,72.3,61.5,29.88,SE,130,0.0,5.0,69,0.00,,,0.01,0,WeatherCatV1.15B25,2013-06-19 03:37:00,
2013-06-18 22:42:00,72.1,61.4,29.88,SE,130,0.0,4.0,69,0.00,,,0.01,0,WeatherCatV1.15B25,2013-06-19 03:42:00,
2013-06-18 22:47:00,71.9,61.6,29.88,SE,130,1.0,2.0,70,0.00,,,0.01,0,WeatherCatV1.15B25,2013-06-19 03:47:00,
2013-06-18 22:52:00,71.6,61.3,29.89,SE,130,4.0,7.0,70,0.00,,,0.01,0,WeatherCatV1.15B25,2013-06-19 03:52:00,
2013-06-18 22:57:00,71.4,61.1,29.89,SE,130,0.0,4.0,70,0.00,,,0.01,0,WeatherCatV1.15B25,2013-06-19 03:57:00,
2013-06-18 23:01:00,71.3,61.4,29.89,SE,130,3.0,3.0,71,0.00,,,0.01,0,WeatherCatV1.15B25,2013-06-19 04:01:00,
2013-06-18 23:06:00,71.3,61.4,29.89,SE,130,0.0,0.0,71,0.00,,,0.01,0,WeatherCatV1.15B25,2013-06-19 04:06:00,
2013-06-18 23:11:00,71.0,61.1,29.89,SE,129,0.0,2.0,71,0.00,,,0.01,0,WeatherCatV1.15B25,2013-06-19 04:11:00,
2013-06-18 23:16:00,70.7,61.2,29.89,SE,130,0.0,0.0,72,0.00,,,0.01,0,WeatherCatV1.15B25,2013-06-19 04:16:00,
2013-06-18 23:21:00,70.4,60.9,29.90,SE,130,0.0,2.0,72,0.00,,,0.01,0,WeatherCatV1.15B25,2013-06-19 04:21:00,
2013-06-18 23:26:00,70.2,61.1,29.89,SE,129,0.0,2.0,73,0.00,,,0.01,0,WeatherCatV1.15B25,2013-06-19 04:26:00,
2013-06-18 23:31:00,70.0,60.9,29.89,SE,130,0.0,0.0,73,0.00,,,0.01,0,WeatherCatV1.15B25,2013-06-19 04:31:00,
2013-06-18 23:36:00,69.7,61.0,29.90,SE,130,0.0,0.0,74,0.00,,,0.01,0,WeatherCatV1.15B25,2013-06-19 04:36:00,
2013-06-18 23:41:00,69.4,60.7,29.90,SE,129,1.0,1.0,74,0.00,,,0.01,0,WeatherCatV1.15B25,2013-06-19 04:41:00,
2013-06-18 23:46:00,69.1,60.8,29.90,SE,136,0.0,6.0,75,0.00,,,0.01,0,WeatherCatV1.15B25,2013-06-19 04:46:00,
2013-06-18 23:51:00,68.9,60.6,29.90,SE,136,0.0,2.0,75,0.00,,,0.01,0,WeatherCatV1.15B25,2013-06-19 04:51:00,
2013-06-18 23:56:00,68.7,60.4,29.91,SE,136,0.0,3.0,75,0.00,,,0.01,0,WeatherCatV1.15B25,2013-06-19 04:56:00,